Погода Скулте

Погода Скулте : погода сейчас, прогноз погоды и архив. Всё, что Вы хотите узнать о погоде Скулте!

Поиск расширенной информации на нашем сайте:

Другие новости

Новости СМИ2

Главная страница сайта

Новости сайта

03.07.2017

Напоминаем, что на нашем специализированном сайте Метеоцентр.Азия вы можете получить высокодетализированные автоматические прогнозы погоды по пунктам России, СНГ и мира в авиационном формате (включающие направление и скорость ветра, видимость, явления погоды, количество и форму облачности, нижнюю и верхнюю границу облачности).


Погода Скулте - сегодня

Время (UTC), дата Ветер
(°,м/с) 
Видим.   Явления Облачность Т
(°С)
Тd
(°С)
f(%) Тe
(°С)
Pmin
(гПа)
dP
(гПа)
Po
(мм)
O2
(г/м3)
Тmin Tmax R s Состояние
почвы
03 17.10.17 160 (Ю) 1-2  н/о    н/о 
+7.5 +7.5 100 +8  1017.5  0.5  762  298           
06 17.10.17 220 (ЮЗ) 3-7  н/о    н/о 
+9.7 +9.7 100 +9  1018.8  1.3  763  295           
09 17.10.17 190 (Ю) 2-4  н/о    н/о 
+10.9 +10.6 98 +13  1017.1  -1.7  762  293           
12 17.10.17 200 (Ю) 3-6  н/о    н/о 
+12.9 +11.6 92 +16  1013.7  -3.4  760  290           
15 17.10.17 200 (Ю) 4-7  н/о    н/о 
+13.6 +11.6 88 +16  1011.5  -2.2  758  289           
18 17.10.17 220 (ЮЗ) 4-7  н/о    н/о 
+13.2 +12.1 93 +17  1009.5  -2  756  288           
21 17.10.17 230 (ЮЗ) 3-5  н/о    н/о 
+12.4 +10.9 91 +14  1008.8  -0.7  756  289           
00 18.10.17 230 (ЮЗ) 6-10  н/о    н/о 
+12.4 +9.5 82 +11  1008.1  -0.7  755  289           
03 18.10.17 220 (ЮЗ) 4-9  н/о    н/о 
+11.6 +9.2 85 +11  1006.8  -1.3  754  290           
06 18.10.17 220 (ЮЗ) 4-9  н/о    н/о 
+11.6 +9.5 87 +11  1006.2  -0.6  754  290           
09 18.10.17 250 (З) 4-8  н/о    н/о 
+11.6 +10.7 94 +13  1007.6  1.3  755  290           
12 18.10.17 320 (СЗ) 2-5  н/о    н/о 
+11.6 +9.6 88 +13  1009.2  1.6  756  291           
15 18.10.17 330 (СЗ) 4-8  н/о    н/о 
+10.7 +6.3 74 +10  1011.6  2.4  758  293           
18 18.10.17 320 (СЗ) 3-6  н/о    н/о 
+10.1 +4.7 69 +10  1013.5  1.9  759  294           
21 18.10.17 330 (СЗ) 4-7  н/о    н/о 
+9.9 +4.5 69 +9  1014.9  1.3  760  295           
00 19.10.17 320 (СЗ) 2-6  н/о    н/о 
+10.2 +5.7 74 +10  1015.8  0.9  761  295           
03 19.10.17 320 (СЗ) 2-5  н/о    н/о 
+10.2 +5.7 74 +10  1016.5  0.7  762  295           
06 19.10.17 320 (СЗ) 2-4  н/о    н/о 
+10.6 +5.4 70 +11  1017.6  1.2  763  295           
09 19.10.17 310 (СЗ) 2-3  н/о    н/о 
+11.3 +5.1 66 +12  1019.1  1.5  764  295           
12 19.10.17 320 (СЗ) 2-5  н/о    н/о 
+11.5 +5.8 68 +12  1019.9  0.8  764  295           
15 19.10.17 330 (СЗ) 2-4  н/о    н/о 
+10.1 +5.5 73 +10  1020.3  0.4  764  296           
18 19.10.17 320 (СЗ) 1-3  н/о    н/о 
+8.6 +5.4 80 +10  1021  0.7  765  298           
21 19.10.17 080 (В) 1-2  н/о    н/о 
+5.8 +5 95 +7  1022  766  301           
00 20.10.17 090 (В) 1-1  н/о    н/о 
+4 +3.7 98 +5  1022.4  0.4  766  304           
03 20.10.17 080 (В) 1-1  н/о    н/о 
+2.8 +2.7 99 +4  1022.7  0.3  766  305           
Время (UTC), дата Ветер
(°,м/с) 
Видим.   Явления Облачность Т
(°С)
Тd
(°С)
f(%) Тe
(°С)
Pmin
(гПа)
dP
(гПа)
Po
(мм)
O2
(г/м3)
Тmin Tmax R s Состояние
почвы

Для получения пояснительной информации подведите курсор к названию столбца.

ПОГОДА Скулте - архив

Всё, что Вы хотите узнать о погоде Скулте - удобно и подробно!

Выберите нужную дату (начиная с 1 января 2015* года) и нажмите кнопку "Найти".
Будут отображены архивные сводки погоды по пункту Скулте, начиная с указанной даты.


Отображать данные в формате CSV (для использования в таблицах Excel)


Внимание! Наш архив погоды предназначен исключительно для личного некоммерческого использования в познавательных целях. Если Вам необходимы официальные справки о состоянии погоды (для производственных, юридических, коммерческих и т.п. целей), обращайтесь в органы Росгидромета.

*Примечание: данная дата относится к архиву по метеостанциям СССР (Россия, СНГ, Балтия).
Архив по метеостанциям Зарубежной Европы и Азии (кроме Китая) хранится 10 дней, по другим регионам земного шара (Китай, Африка, Америка, Австралия, Океания) - 1 день.

Скулте - район местоположения метеостанции


Название, широта, долгота, высота метеостанции:
Скулте 57.3°ш. 24.4°д. 10 м над ур. моря [Латвия]

Дополнительная информация

В oтличие oт бoльшинства пoгoдных сайтoв мы публикуем пoдрoбную метеoинфoрмацию в детальнoм прoфессиoнальнoм фoрмате.

Характеристики температуры и влажнoсти вoздуха измеряются на высoте 2 м в тени вдали oт зданий и деревьев.
Скoрoсть ветра измеряется на высoте 10 м (на урoвне рoста челoвека скoрoсть ветра ниже в 1.5-2 раза). Если метеoстанция нахoдится в гoрoде или в лесу, тo скoрoсть ветра занижена на 2-4 м/с пo сравнению с oткрытым местoм. Скoрoсть ветра над акватoриями крупных рек и oзёр, а также на вершинах хoлмoв на 2-5 м/с выше, чем в oбычных услoвиях.
Атмoсфернoе давление в разных тoчках местнoсти мoжет значительнo oтличаться oт давления на метеoстанции, в зависимoсти oт услoвий рельефа (при пoдъёме на 10 м давление пoнижается примернo на 1 мм рт.ст.).